Preview of NWS' New Version of Forecast
This preview is not operational and should not be used for support decisions.
Latest weather observations around

Danbury, Danbury Municipal Airport (KDXR)

Using English Units (Switch to International System of Units)
Date/ Time (EDT) Wind (mph) Vis. (mi) Weather Sky Cond. Temp (°F) Rel. Humidity Wind Chill (°F) Heat Index (°F) Pressure Precip. (in)
Air Dwpt 6 hour Altimeter (inHg) Sea level (inHg) 1 hr 3 hr 6 hr
Max Min
Sep 16 23:53 Calm 10 Clear CLR 54 53     97%     30.1 30.09      
Sep 16 22:53 Calm 10 Clear CLR 55 53     93%     30.09 30.08      
Sep 16 21:53 WSW 3 10 Clear CLR 56 55     97%     30.08 30.07      
Sep 16 20:53 Calm 10 Clear CLR 58 55     90%     30.07 30.06      
Sep 16 19:53 Calm 10 Clear CLR 61 57     87%     30.05 30.04      
Sep 16 18:53 NE 5 10 Clear CLR 69 54     59%     30.03 30.02      
Sep 16 17:53 NNW 6 10 Clear CLR 73 56     55%   73 30.03 30.02      
Sep 16 16:53 WNW 7 10 Clear CLR 73 54     51%   72 30.03 30.02      
Sep 16 15:53 WNW 6 10 Partly Cloudy FEW100 SCT110 73 57     57%   73 30.04 30.03      
Sep 16 14:53 NNW 3 10 Mostly Cloudy BKN100 72 58     61%   72 30.05 30.04      
Sep 16 13:53 NNW 5 10 Cloudy OVC065 68 57     68%     30.07 30.06      
Sep 16 12:53 NNW 5 10 Cloudy OVC055 68 58     70%     30.08 30.07      
Sep 16 11:53 5 10 Cloudy OVC047 66 57     73%     30.09 30.08      
Sep 16 10:53 NNW 6 10 Cloudy OVC065 66 57     73%     30.1 30.09      
Sep 16 09:53 5 10 Mostly Cloudy SCT085 BKN110 66 59     78%     30.11 30.1      
Sep 16 08:53 5 10 Mostly Cloudy SCT060 BKN075 65 58     78%     30.1 30.09      
Sep 16 07:53 SSW 3 10 Cloudy BKN060 OVC075 62 60     93%     30.09 30.09     0
Sep 16 06:53 Calm 10 Cloudy OVC065 62 60     93%     30.09 30.09 0    
Sep 16 05:53 Calm 10 Light Rain SCT065 OVC080 61 59     93%     30.09 30.08 0    
Sep 16 04:53 Calm 10 Cloudy BKN065 OVC100 60 57     90%     30.08 30.07      
Sep 16 03:53 Calm 10 Cloudy OVC100 60 57     90%     30.07 30.06      
Sep 16 02:53 Calm 10 Mostly Cloudy FEW055 BKN110 58 57     97%     30.08 30.06      
Sep 16 01:53 Calm 10 Clear CLR 59 56     90%     30.07 30.06      
Sep 16 00:53 Calm 10 Clear CLR 58 56     93%     30.07 30.06      
Sep 15 23:53 Calm 10 Clear CLR 59 56     90%     30.08 30.06      
Sep 15 22:53 Calm 10 Clear CLR 62 56     80%     30.08 30.07      
Sep 15 21:53 Calm 10 Clear CLR 60 57     90%     30.09 30.08      
Sep 15 20:53 SW 5 10 Clear CLR 61 56     83%     30.09 30.08      
Sep 15 19:53 WSW 5 10 Clear CLR 65 57     76%     30.09 30.09      
Sep 15 18:53 SW 5 10 Clear CLR 68 57     68%     30.09 30.09      
Sep 15 17:53 3 10 Clear CLR 77 53     43%   76 30.09 30.08      
Sep 15 16:53 6 10 Clear CLR 78 51     39%   77 30.1 30.09      
Sep 15 15:53 WNW 9 10 Clear CLR 79 47     32%   78 30.09 30.08      
Sep 15 14:53 3 10 Clear CLR 77 54     45%   77 30.1 30.09      
Sep 15 13:53 6 10 Clear CLR 77 53     43%   76 30.13 30.11      
Sep 15 12:53 W 5 10 Clear CLR 75 57     54%   75 30.14 30.13      
Sep 15 11:53 6 10 Clear CLR 74 59     60%   74 30.17 30.16      
Sep 15 10:53 6 10 Mostly Clear FEW024 72 58     61%   72 30.18 30.17      
Sep 15 09:53 5 10 Partly Cloudy SCT018 69 60     73%     30.19 30.18      
Sep 15 08:53 Calm 10 Clear CLR 64 63     96%     30.19 30.18      
Sep 15 08:34 Calm 8 Partly Cloudy SCT002 63 63     100%     30.18        
Sep 15 08:25 Calm 3 Fog/Mist BKN002 63 63     100%     30.18        
Sep 15 08:22 Calm 1.25 Fog/Mist BKN002 62 62     100%     30.19        
Sep 15 07:53 Calm 0.25 Fog VV002 61 61     100%     30.19 30.18      
Sep 15 06:53 Calm 0.75 Fog/Mist BKN002 BKN014 61 61     100%     30.19 30.18      
Sep 15 06:40 Calm 0.75 Fog/Mist FEW007 OVC014 62 61     96%     30.18        
Sep 15 06:34 Calm 1.75 Fog/Mist SCT006 OVC013 61 61     100%     30.18        
Sep 15 06:29 Calm 2 Fog/Mist BKN006 OVC013 61 61     100%     30.18        
Sep 15 06:08 Calm 5 Fog/Mist BKN006 OVC060 62 62     100%     30.19        
Sep 15 06:04 ENE 5 2 Fog/Mist BKN004 OVC065 62 62     100%     30.19        
Sep 15 06:01 ENE 5 1 Fog/Mist BKN004 OVC065 62 62     100%     30.19        
Sep 15 05:53 NE 6 0.5 Fog SCT002 OVC065 59 59     100%     30.18 30.18      
Sep 15 04:53 Calm 0.25 Fog VV002 61 61     100%     30.17 30.16      
Sep 15 04:43 Calm 0.25 Fog VV003 61 61     100%     30.17        
Sep 15 04:25 Calm 0.25 Fog VV004 62 61     96%     30.16        
Sep 15 04:00 Calm 0.25 Fog VV003 63 62     97%     30.16        
Sep 15 03:53 Calm 0.25 Fog VV004 62 62     100%     30.16 30.15      
Sep 15 03:30 Calm 0.75 Fog/Mist VV004 64 63     96%     30.16        
Sep 15 03:24 Calm 1.75 Fog/Mist CLR 65 63     93%     30.16        
Sep 15 02:53 WSW 3 8 Partly Cloudy SCT024 66 65     96%     30.17 30.16      
Sep 15 01:53 S 3 7 Cloudy FEW017 OVC023 67 66     97%     30.18 30.17     0
Sep 15 00:53 Calm 7 Cloudy FEW014 OVC021 67 66     97%     30.18 30.17      
Sep 15 00:45 Calm 7 Cloudy FEW008 SCT013 OVC021 67 66     97%     30.18        
Sep 15 00:30 Calm 4 Fog/Mist FEW008 BKN012 OVC020 67 66     97%     30.18        
Sep 14 23:53 Calm 9 Cloudy BKN023 BKN028 OVC040 67 66     97%     30.19 30.18      
Sep 14 22:53 SSW 3 10 Cloudy FEW021 OVC028 68 66     93%     30.19 30.18 0 0  
Sep 14 21:53 Calm 9 Cloudy FEW010 OVC028 68 66     93%     30.2 30.19 0    
Sep 14 21:43 W 3 10 Cloudy FEW010 SCT018 OVC030 68 66     93%     30.2   0    
Sep 14 21:07 Calm 4 Rain and Fog/Mist FEW019 BKN028 OVC038 68 66     93%     30.19   0    
Sep 14 20:53 SSW 6 6 Light Rain and Fog/Mist FEW019 BKN032 OVC039 68 66     93%     30.19 30.19 0    
Sep 14 20:46 SSW 5 6 Light Rain and Fog/Mist FEW019 BKN032 OVC041 68 66     93%     30.2   0    
Sep 14 19:53 SSW 3 6 Light Rain and Fog/Mist BKN018 OVC026 68 66     93%     30.19 30.18 0   0
Sep 14 18:53 S 5 10 Cloudy OVC032 68 65     90%     30.19 30.18 0    
Sep 14 18:26 SSW 7 2.5 Heavy Rain and Fog/Mist OVC032 69 65     87%     30.19   0    
Sep 14 17:53 SSW 9 10 Cloudy OVC027 70 64     81%     30.19 30.19      
Sep 14 16:53 SSW 9 10 Cloudy BKN027 OVC035 70 63     78%     30.2 30.19      
Sep 14 15:53 SSW 8 10 Cloudy OVC026 69 62     78%     30.22 30.21      
Sep 14 14:53 S 3 10 Cloudy OVC028 68 62     81%     30.23 30.23      
Sep 14 14:45 S 5 10 Cloudy OVC028 68 62     81%     30.24        
Sep 14 13:53 5 10 Cloudy BKN035 OVC050 67 62     84%     30.26 30.25 0   0
Sep 14 13:00 SSW 6 10 Cloudy BKN037 OVC045 68 59     73%     30.29        
Sep 14 12:53 SSW 6 10 Cloudy BKN029 OVC044 68 59     73%     30.29 30.28 0    
Sep 14 11:53 S 8 7 Light Rain BKN027 OVC044 68 58     70%     30.31 30.3 0    
Sep 14 10:53 SSW 9 10 Cloudy OVC030 68 57     68%     30.32 30.32      
Sep 14 09:53 S 7 10 Cloudy BKN030 OVC045 67 58     73%     30.33 30.32      
Sep 14 08:53 SSE 5 10 Cloudy OVC055 63 59     87%     30.34 30.34      
Sep 14 07:53 SE 6 10 Cloudy OVC055 60 57     90%     30.35 30.34      
Sep 14 06:53 ESE 6 10 Cloudy FEW050 OVC060 57 54     89%     30.36 30.36      
Sep 14 05:53 Calm 10 Cloudy OVC070 56 52     87%     30.37 30.36      
Sep 14 04:53 Calm 10 Clear CLR 52 50     93%     30.36 30.35      
Sep 14 03:53 Calm 10 Mostly Clear FEW034 FEW060 52 49     89%     30.38 30.38      
Sep 14 02:53 SE 3 10 Cloudy OVC065 56 49     77%     30.39 30.38      
Sep 14 01:53 Calm 10 Cloudy BKN060 OVC080 55 49     80%     30.41 30.41      
Sep 14 00:53 Calm 10 Mostly Cloudy BKN070 51 48     89%     30.44 30.43      
May 15 11:53 WSW 7 9 Clear CLR 79 65     62%   80 29.84 29.83      
May 15 05:34 Calm 0.75 Fog/Mist VV003 60 60     100%     29.89        
May 15 04:57 Calm 2.5 Fog/Mist OVC003 60 59     96%     29.88        
May 14 16:53 WSW 9 10 Mostly Clear FEW035 70 58     66%     29.94 29.93      
May 14 00:19 Calm 10 Cloudy SCT008 BKN030 OVC035 50 50     100%     30.08        
May 13 13:53 SSE 6 10 Light Rain OVC015 52 49     89%     30.17 30.17 0   0
May 13 12:26 E 8 10 Cloudy OVC015 52 47     83%     30.2        
May 13 03:21 Calm 10 Cloudy BKN008 OVC021 48 47     96%     30.13        
May 11 22:53 Calm 10 Mostly Clear FEW100 56 31     38%     30.14 30.14      
May 11 21:53 N 5 10 Cloudy OVC100 60 31     33%     30.12 30.11      
Jun 12 07:53 SW 5 10 Clear CLR 75 63     66%   75 30.05 30.04      
Jun 12 04:53 Calm 10 Clear CLR 65 61     87%     30.03 30.02      
Jun 11 15:53 WSW 15 10 Light Rain CLR 90 61     38%   90 30.01 29.99 0    
Jun 11 10:53 WNW 8 10 Clear CLR 83 60     46%   83 30.06 30.05      
Jun 11 02:53 W 3 10 Clear CLR 68 58     70%     30.04 30.03      
Jun 10 19:53 S 5 10 Clear CLR 75 61     62%   75 29.98 29.97     0
Jun 10 18:53 S 10 10 Clear   78 60     54%   78 29.96 29.94      
Jun 10 15:53 SW 13 10 Partly Cloudy SCT070 SCT120 83 58     43%   83 29.96 29.95 0    
Jun 08 08:53 NNE 6 10 Clear CLR 62 53     72%     30.05 30.04      
Jun 07 16:53 E 3 10 Partly Cloudy SCT065 69 49     49%     29.98 29.98      
Jun 07 15:53 Calm 10 Mostly Cloudy BKN065 70 50     49%     29.98 29.97      
Jun 06 03:53 NE 10 10 Cloudy OVC012 53 51     93%     29.73 29.72      
Jun 05 23:53 NE 9 10 Cloudy OVC009 55 53     93%     29.78 29.77      
Jun 05 22:53 NE 7 5 Fog/Mist OVC007 56 55     97%     29.78 29.78